Location: Aytr�
(46.1357°N, 1.1145°W)
Time: 13:20:29
(UTC+00:00)

Tiangong - Visible Passes

Search period start: 24 September 2021 00:00
Search period end: 04 October 2021 00:00
Orbit: 382 x 385 km, 41.5° (Epoch: 24 September)

Date Brightness Start Highest point End Pass type
(mag) Time Alt. Az. Time Alt. Az. Time Alt. Az.
27 Sep 3.6 04:35:19 10° S 04:37:03 14° SSE 04:38:51 10° ESE visible
28 Sep 2.8 05:10:52 10° SW 05:13:33 26° SSE 05:16:15 10° ESE visible
29 Sep 3.0 04:13:38 20° SSE 04:13:47 20° SSE 04:16:12 10° ESE visible
30 Sep 2.3 04:48:49 20° SW 04:50:21 31° S 04:53:12 10° ESE visible
01 Oct 3.3 03:51:47 20° SE 03:51:47 20° SE 03:53:15 10° ESE visible
01 Oct 2.2 05:24:04 10° WSW 05:26:59 34° S 05:29:54 10° ESE visible
02 Oct 2.0 04:26:55 34° S 04:27:09 34° S 04:30:04 10° ESE visible
03 Oct 4.2 03:29:53 12° ESE 03:29:53 12° ESE 03:30:09 10° ESE visible
03 Oct 2.2 05:02:05 18° WSW 05:03:45 31° S 05:06:36 10° SE visible
